Tracking 25693 objects as of 1-Jul-2022
HD Live streaming from Space Station
objects crossing your sky now

STARLINK-2078

Track STARLINK-2078 now!
10-day predictions
STARLINK-2078 is classified as:


NORAD ID: 47675
Int'l Code: 2021-012BH
Perigee: 553.4 km
Apogee: 555.3 km
Inclination: 53.1 °
Period: 95.6 minutes
Semi major axis: 6925 km
RCS: Unknown
Launch date: February 16, 2021
Source: United States (US)
Launch site: AIR FORCE EASTERN TEST RANGE (AFETR)
aabbcc
Your satellite tracking list
Your tracking list is empty




NASA's NSSDC Master Catalog

Two Line Element Set (TLE):
1 47675U 21012BH  22182.43469969  .00001216  00000-0  10051-3 0  9990
2 47675  53.0554 339.6835 0001417  70.2840 289.8301 15.06403971 77207
Source of the keplerian elements: AFSPC